TimeCDT,TemperatureF,Dew PointF,Humidity,Sea Level PressureIn,VisibilityMPH,Wind Direction,Wind SpeedMPH,Gust SpeedMPH,PrecipitationIn,Events,Conditions,WindDirDegrees,DateUTC
12:53 AM,55.0,54.0,96,30.07,10.0,WSW,8.1,-,N/A,,Clear,250,2013-09-02 05:53:00
1:53 AM,54.0,54.0,100,30.07,10.0,NE,3.5,-,N/A,,Clear,50,2013-09-02 06:53:00
2:53 AM,54.0,53.1,97,30.07,10.0,Calm,Calm,-,N/A,,Clear,0,2013-09-02 07:53:00
3:53 AM,52.0,52.0,100,30.07,10.0,WSW,3.5,-,N/A,,Clear,250,2013-09-02 08:53:00
4:53 AM,52.0,52.0,100,30.07,10.0,Calm,Calm,-,N/A,,Clear,0,2013-09-02 09:53:00
5:53 AM,51.1,51.1,100,30.08,10.0,Calm,Calm,-,N/A,,Clear,0,2013-09-02 10:53:00
6:53 AM,51.1,51.1,100,30.09,10.0,Calm,Calm,-,N/A,,Clear,0,2013-09-02 11:53:00
7:53 AM,54.0,53.1,97,30.10,10.0,Calm,Calm,-,N/A,,Clear,0,2013-09-02 12:53:00
8:53 AM,61.0,57.9,90,30.12,10.0,Calm,Calm,-,N/A,,Clear,0,2013-09-02 13:53:00
9:53 AM,66.9,60.1,79,30.12,10.0,SE,3.5,-,N/A,,Clear,130,2013-09-02 14:53:00
10:53 AM,71.1,60.1,68,30.11,10.0,Variable,3.5,-,N/A,,Clear,0,2013-09-02 15:53:00
11:53 AM,75.0,57.9,55,30.10,10.0,South,6.9,-,N/A,,Clear,170,2013-09-02 16:53:00
12:53 PM,78.1,57.0,48,30.08,10.0,SE,6.9,-,N/A,,Clear,140,2013-09-02 17:53:00
1:53 PM,80.1,57.9,47,30.06,10.0,SE,5.8,-,N/A,,Clear,130,2013-09-02 18:53:00
2:53 PM,82.0,59.0,45,30.04,10.0,ESE,9.2,-,N/A,,Clear,120,2013-09-02 19:53:00
3:53 PM,82.9,57.9,42,30.02,10.0,ESE,9.2,-,N/A,,Clear,120,2013-09-02 20:53:00
4:53 PM,82.9,57.9,42,30.00,10.0,SE,10.4,-,N/A,,Clear,140,2013-09-02 21:53:00
5:53 PM,82.0,59.0,45,29.99,10.0,SE,10.4,-,N/A,,Clear,140,2013-09-02 22:53:00
6:53 PM,79.0,61.0,54,30.00,10.0,SE,6.9,-,N/A,,Clear,140,2013-09-02 23:53:00
7:53 PM,73.0,62.1,68,30.00,10.0,SE,6.9,-,N/A,,Clear,130,2013-09-03 00:53:00
8:53 PM,69.1,61.0,75,30.00,10.0,ESE,5.8,-,N/A,,Clear,110,2013-09-03 01:53:00
9:53 PM,66.0,61.0,84,30.01,10.0,SE,6.9,-,N/A,,Clear,140,2013-09-03 02:53:00
10:53 PM,64.9,61.0,87,30.02,10.0,SSE,3.5,-,N/A,,Clear,150,2013-09-03 03:53:00
11:53 PM,64.0,60.1,87,30.01,10.0,SSE,4.6,-,N/A,,Clear,160,2013-09-03 04:53:00